Regional Weather Roundup
Issued by NWS Portland, ME

Current Version | Previous Version | Text Only | Print | Product List | Glossary Off
Versions: 1 2 3 4 5 6 7 8 9 10 11 12 13 14 15 16 17 18 19 20 21 22 23 24 25 26 27 28 29 30 31 32 33 34 35 36 37 38 39 40 41 42 43 44 45 46 47 48 49 50
000 ASUS41 KGYX 162310 RWRGYX WEATHER ROUNDUP FOR MAINE AND NEW HAMPSHIRE NATIONAL WEATHER SERVICE GRAY ME 700 PM EDT SAT JUN 16 2018 MEZ002-005-006-010-012-015-018-020-021-024-026-027-029-170000- MAINE CITY SKY/WX TMP DP RH WIND PRES REMARKS PORTLAND FAIR 82 47 29 NW7 29.90R SANFORD FAIR 81 51 35 W5 29.92R BAR HARBOR FAIR 77 57 50 SW6 29.85R WISCASSET FAIR 82 53 36 SW5 29.88R ROCKLAND FAIR 81 52 36 W6 29.86R FRYEBURG FAIR 81 48 31 VRB6 29.92R LEWISTONAUBURN FAIR 81 49 32 W8 29.90R AUGUSTA FAIR 82 47 29 W6 29.88R WATERVILLE FAIR 81 49 32 NW5 29.86R BANGOR FAIR 82 47 29 NW7 29.85R GREENVILLE N/A 75 44 33 NW7 29.90R MILLINOCKET PTSUNNY 82 47 29 W7 29.85R HOULTON FAIR 78 45 30 N9 29.84R PRESQUE ISLE FAIR 78 42 27 N7 29.86R FRENCHVILLE FAIR 78 39 24 N6 29.87R CARIBOU FAIR 78 41 26 N6 29.85R $$ NHZ002-005-008-009-011-012-014-170000- NEW HAMPSHIRE CITY SKY/WX TMP DP RH WIND PRES REMARKS PORTSMOUTH MOSUNNY 81 50 33 W7 29.90R ROCHESTER FAIR 81 49 32 VRB3 29.91R NASHUA FAIR 81 51 35 W6 29.94R MANCHESTER FAIR 83 45 26 W7 29.92R CONCORD FAIR 81 46 29 W9 29.93R LACONIA FAIR 79 49 34 W7 29.94R PLYMOUTH FAIR 79 40 24 NW3 29.94R BERLIN FAIR 78 43 28 VRB5 29.95R WHITEFIELD FAIR 78 42 27 W8 29.96R JAFFREY FAIR 79 47 32 VRB7 29.98R KEENE FAIR 83 47 28 NW3 29.96R LEBANON FAIR 82 47 29 N3 29.95R MT WASHINGTON PTSUNNY 50 36 57 W31G41 N/A $$ VTZ005-007-008-170000- VERMONT CITY SKY/WX TMP DP RH WIND PRES REMARKS ST JOHNSBURY N/A 77 37 23 MISG 29.94R MONTPELIER FAIR 75 46 35 NW9 30.01R BURLINGTON FAIR 82 41 23 VRB5 29.94R $$ MAZ007-012-024-CTZ003-RIZ002-NYZ038-NYZ072-170000- SOUTHERN NEW ENGLAND AND NY CITY SKY/WX TMP DP RH WIND PRES REMARKS BOSTON FAIR 76 50 40 SE9 29.93R WORCESTER FAIR 77 48 35 W8 29.98R NANTUCKET FAIR 65 57 75 W13 29.96F PROVIDENCE PTSUNNY 80 50 34 W6 29.95R HARTFORD PTSUNNY 81 51 35 NW5 29.96R ALBANY FAIR 81 50 33 W9 29.96S NEW YORK CITY PTSUNNY 80 52 37 SE12 29.97R $$ ANZ081-ANZ082-ANZ150-NHZ014-MEZ023>029-170000- COASTAL MARINE OBSERVATIONS STATION/POSITION TIME TEMP WIND PRES WAVE AIR SEA DIR/SP/G HT/PER (UTC) (F) (DEG/KT/KT) (MB) (FT/S) MOUNT DESERT ROC 2300 56 220/ 17/ 17 1011.3R MATINICUS ROCK 2300 64 250/ 20/ 20 1011.0R ISLE OF SHOALS 2300 79 240/ 13/ 14 1012.4R JEFFREYS LEDGE 2236 59 N/A 1/ 8 $$ .............KEY.............. WCI - WIND CHILL TC - TEMPERATURE IN CELSIUS VSB - VISIBILITY IN MILES HX - HEAT INDEX FAIR- INDICATES FEW OR NO CLOUDS BELOW 12,000 FT, WITH NO SIGNIFICANT WEATHER AND/OR OBSTRUCTIONS TO VISIBILITY.

USA.gov is the U.S. government's official web portal to all federal, state and local government web resources and services.